This demonstration page uses our WeatherBlox Daily Observations layout. Learn more.

Left ArrowRight Arrow

39.01783, -85.05884

Hourly Observations for February 4, 2019

Temp ( °F °C ) Dew Point ( °F °C ) Humidity (%) Winds ( mph kmh ) Pressure ( in mb ) Visibility ( mi km ) Precip ( " mm )
12:52 am 00:52 Clear 46 7.8 39 3.9 77 77 S 7 11 29.96 1014 10 16 0.00 0.00
1:52 am 01:52 Clear 45 7.2 39 3.9 80 80 S 9 15 29.95 1014 10 16 0.00 0.00
2:52 am 02:52 Clear 46 7.8 39 3.9 77 77 S 10 17 29.95 1014 10 16 0.00 0.00
3:52 am 03:52 Clear 47 8.3 41 5 80 80 S 9 15 29.93 1014 10 16 0.00 0.00
4:52 am 04:52 Mostly Clear 47 8.3 42 5.6 83 83 S 12 19 29.93 1014 10 16 0.00 0.00
5:52 am 05:52 Mostly Clear 46 7.8 42 5.6 86 86 S 10 17 29.94 1014 10 16 0.00 0.00
6:52 am 06:52 Mostly Clear 46 7.8 42 5.6 86 86 S 10 17 29.93 1014 10 16 0.00 0.00
7:52 am 07:52 Mostly Sunny 46 7.8 42 5.6 86 86 S 9 15 29.93 1014 9 14 0.00 0.00
8:52 am 08:52 Mostly Cloudy 50 10 45 7.2 83 83 S 12 19 29.93 1014 10 16 0.00 0.00
9:52 am 09:52 Mostly Cloudy 53 11.7 46 7.8 77 77 S 14 22 29.93 1013 10 16 0.00 0.00
10:52 am 10:52 Mostly Cloudy 57 13.9 48 8.9 72 72 SSW 15 24 29.92 1013 10 16 0.00 0.00
11:52 am 11:52 Cloudy 58 14.4 49 9.4 72 72 SSW 13 20 29.92 1013 10 16 0.00 0.00
11:59 am 11:59 Cloudy 58 14.4 49 9.4 72 72 S 13 20 29.92 1013 10 16 0.00 0.00
12:52 pm 12:52 Cloudy 59 15 50 10 72 72 S 14 22 29.89 1012 10 16 0.00 0.00
1:36 pm 13:36 Cloudy with Light Rain 58 14.4 51 10.6 78 78 S 14 22 29.88 1012 4 6 0.00 0.03
1:52 pm 13:52 Cloudy with Rain 57 13.9 52 11.1 83 83 SSW 8 13 29.87 1012 3 5 0.02 0.51
2:06 pm 14:06 Cloudy with Light Rain 57 13.9 53 11.7 87 87 S 12 19 29.88 1012 3 5 0.01 0.25
2:28 pm 14:28 Cloudy with Rain 56 13.3 52 11.1 87 87 S 10 17 29.87 1011 3 5 0.03 0.76
2:52 pm 14:52 Cloudy with Light Rain 55 12.8 53 11.7 93 93 S 12 19 29.85 1011 3 5 0.05 1.27
3:33 pm 15:33 Cloudy with Light Rain 56 13.3 53 11.7 90 90 S 13 20 29.86 1011 3 5 0.01 0.25
3:52 pm 15:52 Cloudy with Mist and Fog 56 13.3 53 11.7 90 90 S 14 22 29.85 1011 3 5 0.01 0.25
4:52 pm 16:52 Cloudy 56 13.3 53 11.7 90 90 S 15 24 29.85 1011 10 16 0.00 0.00
5:22 pm 17:22 Cloudy with Drizzle 56 13.3 53 11.7 90 90 S 12 19 29.86 1011 2 3 0.00 0.03
5:32 pm 17:32 Cloudy with Drizzle 56 13.3 53 11.7 90 90 S 12 19 29.85 1011 2 3 0.00 0.03
5:52 pm 17:52 Cloudy with Drizzle 56 13.3 53 11.7 90 90 SSW 10 17 29.85 1011 2 3 0.00 0.03
6:52 pm 18:52 Cloudy with Drizzle 56 13.3 54 12.2 93 93 S 10 17 29.86 1011 2 3 0.01 0.25
7:52 pm 19:52 Cloudy with Drizzle 56 13.3 54 12.2 93 93 SSW 8 13 29.87 1012 2 3 0.00 0.03
8:52 pm 20:52 Cloudy with Drizzle 56 13.3 54 12.2 93 93 SSW 10 17 29.88 1012 2 3 0.00 0.03
9:52 pm 21:52 Cloudy with Drizzle 56 13.3 54 12.2 93 93 SSW 12 19 29.88 1012 2 3 0.01 0.25
10:05 pm 22:05 Cloudy with Drizzle 56 13.3 54 12.2 93 93 SSW 10 17 29.89 1012 1 1 0.00 0.03
10:52 pm 22:52 Cloudy with Drizzle 56 13.3 54 12.2 93 93 SSW 9 15 29.88 1012 0 0 0.00 0.03
11:52 pm 23:52 Cloudy with Mist and Fog 56 13.3 54 12.2 93 93 SSW 8 13 29.90 1013 0 0 0.00 0.03

Powered by AerisWeather